Tracking 18796 objects as of 20-September-2017
HD Live streaming from Space Station
objects crossing your sky now

ASTRA 2D

Track ASTRA 2D now!
ASTRA 2D is classified as:


NORAD ID: 26638
Int'l Code: 2000-081A
Perigee: 35,785.4 km
Apogee: 35,802.4 km
Inclination: 3.8 °
Period: 1,436.1 minutes
Semi major axis: 42164 km
RCS: 0.6797 m2 (medium)
Launch date: December 20, 2000
Source: SOCIETE EUROPEENNE DES SATELLITES (SES)
Launch site: FRENCH GUIANA (FRGUI)

Direct-to-home; broadcasting, multimedia; 16 Ku-band; UK and Ireland.
aabbcc
Your satellite tracking list
Your tracking list is empty





NASA's NSSDC Master Catalog

Two Line Element Set (TLE):
1 26638U 00081A   17263.03101249  .00000021  00000-0  00000+0 0  9995
2 26638   3.8286  69.5867 0002022 108.6678 251.7202  1.00271224 61383
Source of the keplerian elements: AFSPC